Wind_Speed
14 13 14 14 12 11 11 12 11 9 9 8 8 7 5 5 3 2 2 3 4 3 5 11 12 12 15 13 9 7 7 8 12 15 15 15 14 14 12 11 10 7 7 8 5 3 6 9 9 11 15 20 26 30 31 32 29 22 18 17 18 18 19 17 15 12 9 8 6 6 5 5 5 6 7 7 7 7 7 6 5 4 2 1 3 5
16 16 14 12 10 10 11 12 12 11 9 7 7 7 5 3 1 0 1 2 4 4 3 11 14 14 15 13 9 7 6 8 13 15 15 15 15 15 13 12 11 8 8 8 5 4 8 9 9 13 17 20 24 29 32 32 29 24 22 20 19 17 15 11 13 11 10 9 7 6 5 5 5 6 6 7 7 8 8 7 7 5 4 2 1 2
17 16 11 9 9 10 10 11 12 11 10 8 7 7 5 3 4 2 1 2 3 4 1 11 15 14 13 11 9 7 6 8 14 15 15 15 15 14 13 12 11 8 7 8 5 5 9 10 11 13 15 18 22 27 29 29 29 28 26 21 17 14 13 9 11 10 10 9 7 6 5 5 5 5 6 7 7 8 9 8 8 6 5 3 2 1
15 11 8 9 9 9 9 10 11 10 10 10 9 8 6 4 4 2 1 2 2 3 5 9 12 13 12 11 9 8 7 8 13 15 14 15 16 15 13 11 11 8 7 8 7 7 10 12 12 13 13 16 20 23 23 26 28 29 28 20 14 15 15 11 10 10 10 8 7 6 5 5 5 5 5 6 7 9 9 9 8 7 6 5 3 2
13 6 9 11 9 8 8 9 11 11 11 11 10 8 6 4 2 2 2 2 3 4 7 8 8 9 11 11 10 10 9 9 11 14 14 16 17 15 13 12 11 9 8 10 9 9 10 12 14 14 14 14 18 22 24 26 27 29 28 19 14 17 17 13 12 12 10 8 7 6 6 5 5 5 5 6 7 9 9 9 9 9 8 7 6 5
13 9 11 10 6 6 8 9 11 12 12 12 10 8 6 4 3 2 3 4 4 4 6 7 4 4 7 10 10 10 11 10 12 14 15 16 17 15 14 14 12 11 11 11 11 10 11 13 16 17 16 15 19 25 27 27 27 31 28 18 16 20 18 16 15 12 10 9 8 6 6 5 4 5 5 5 7 8 9 10 10 9 9 8 8 7
13 11 10 5 2 6 10 11 12 13 14 11 8 8 5 3 4 4 3 3 4 4 5 5 4 3 6 9 10 9 9 10 12 15 17 17 17 16 15 15 14 13 12 12 12 12 12 15 18 19 18 17 21 27 28 28 30 32 27 19 19 22 21 18 16 13 12 11 9 8 6 4 4 4 4 4 5 7 9 10 11 11 10 9 8 7
14 12 8 3 0 5 11 13 13 14 13 10 7 7 4 3 4 4 4 4 4 5 5 4 5 5 5 8 9 10 9 8 10 14 18 18 18 17 16 16 16 14 13 13 12 12 13 16 19 21 22 21 25 30 30 29 29 28 25 21 21 22 20 18 17 15 13 12 11 8 5 3 3 3 3 3 4 6 8 10 11 12 11 10 9 8
13 11 7 3 1 5 12 14 12 13 12 10 8 6 4 4 5 4 5 5 5 6 4 4 8 6 4 8 9 9 10 8 8 12 16 19 20 19 18 18 17 16 15 14 14 13 13 16 21 25 27 27 29 32 31 28 27 25 23 21 21 20 18 18 18 17 15 14 12 8 5 4 3 2 2 2 3 5 7 9 10 12 11 10 9 8
10 11 7 4 2 5 12 14 13 13 12 10 9 7 6 6 6 6 5 5 6 6 4 6 10 6 4 10 11 9 10 9 8 10 13 17 20 20 20 20 19 19 17 16 16 15 16 21 26 31 31 29 32 33 31 29 27 25 23 21 21 20 19 20 20 19 17 16 14 10 7 6 5 4 2 1 2 3 5 7 9 10 11 10 9 8
11 11 8 5 2 4 11 14 14 14 11 10 9 8 8 8 8 7 5 5 4 3 4 7 10 8 5 10 14 12 11 10 10 10 10 14 17 20 21 22 21 21 19 18 18 18 21 25 25 25 23 23 30 33 32 30 27 25 24 24 23 22 21 21 21 20 19 18 16 11 8 7 6 5 3 2 1 1 3 6 7 9 10 10 9 8
13 12 10 8 4 4 11 14 14 14 12 10 10 9 9 8 8 5 4 5 3 2 4 6 9 9 5 9 15 14 12 12 11 11 11 12 14 17 19 21 23 23 22 21 21 22 24 22 18 15 15 17 27 35 35 33 29 27 27 27 27 26 24 22 21 21 21 20 17 13 10 8 7 7 6 5 3 1 2 5 6 8 9 9 9 7
14 14 12 10 7 6 10 13 13 15 14 12 10 11 9 5 4 4 2 3 3 2 4 6 7 7 6 9 15 16 14 13 13 13 13 13 14 15 17 19 23 24 25 24 24 25 23 18 16 15 14 15 24 32 31 30 32 32 31 31 31 29 25 23 22 23 23 21 18 15 12 10 9 9 8 7 5 3 1 3 5 7 8 8 8 7
10 12 14 13 10 9 11 12 15 17 17 14 12 13 10 4 2 3 1 0 3 4 6 7 6 4 5 8 14 16 15 14 14 14 15 15 16 16 17 19 22 25 28 29 28 26 22 17 16 18 15 14 21 27 25 26 32 33 32 34 34 29 26 24 24 25 24 22 19 16 13 11 11 11 10 9 8 6 3 0 3 6 7 7 7 7
8 8 13 14 12 10 12 12 13 15 16 15 14 14 12 8 4 3 3 3 2 3 6 8 5 3 5 7 9 13 13 12 13 15 15 16 17 18 20 22 23 26 29 31 31 28 22 18 17 18 17 16 20 26 25 25 29 31 30 32 32 26 23 22 23 26 25 23 19 17 15 13 12 13 12 11 10 8 6 3 1 4 5 5 6 6
10 8 11 15 14 12 13 14 14 13 13 15 16 14 13 12 9 5 4 4 4 3 4 7 5 5 7 7 8 9 9 9 10 12 14 16 16 18 20 21 22 23 26 29 31 29 23 19 17 16 14 14 17 22 23 22 25 28 26 25 26 23 19 19 22 24 24 23 21 19 17 15 14 15 14 13 12 10 7 4 1 3 3 3 4 4
11 9 10 15 16 14 14 16 17 16 13 13 16 17 16 13 11 7 3 3 4 3 4 6 5 6 7 7 9 9 9 8 7 8 12 14 15 16 16 15 14 15 19 25 27 27 24 19 15 13 10 9 14 18 22 21 21 22 21 22 26 21 16 19 23 24 24 25 24 22 20 17 16 17 17 16 14 11 9 6 2 3 3 1 1 2
11 9 10 16 18 16 16 17 19 19 17 14 15 18 17 13 11 9 3 3 2 2 3 5 5 6 7 6 8 11 11 8 5 5 7 9 9 8 8 8 9 9 10 14 19 23 22 16 12 13 9 7 14 17 21 20 16 15 16 19 23 20 18 23 27 28 29 28 27 25 23 20 18 19 20 19 16 14 11 7 5 5 4 2 2 1
11 8 8 15 18 16 16 17 17 18 19 17 15 15 15 10 9 11 5 2 3 2 1 4 5 7 11 10 8 9 9 6 4 3 3 3 2 5 7 10 12 13 12 10 12 16 13 5 4 7 7 4 10 12 13 14 11 11 11 13 16 18 21 26 27 27 26 24 26 27 26 24 22 22 22 21 19 16 13 10 8 8 6 5 4 4
14 11 7 12 16 15 16 17 16 16 19 18 14 15 16 10 9 13 9 5 5 3 1 3 3 6 13 14 10 8 7 6 6 5 4 3 2 6 7 9 11 11 11 9 10 14 12 7 5 7 8 5 8 7 6 8 6 4 5 8 9 8 14 19 18 19 19 20 24 26 27 27 25 24 24 23 21 19 16 13 12 11 10 8 8 7
18 15 10 11 13 13 14 17 16 15 18 18 16 16 17 13 10 11 10 7 5 3 2 3 2 5 11 12 12 10 8 8 8 7 6 5 4 4 5 6 7 5 5 6 7 9 8 7 8 7 6 3 7 6 6 6 5 2 4 8 12 12 13 16 16 17 18 19 21 22 24 26 27 27 26 24 23 22 19 16 15 15 13 12 11 11
21 18 13 12 14 14 14 16 16 15 17 18 17 17 17 15 12 9 6 8 7 4 4 3 2 5 8 10 13 12 9 9 9 8 7 6 5 4 4 5 3 2 2 4 4 3 3 3 2 2 1 4 7 7 6 6 7 8 9 8 11 12 12 15 16 17 17 17 18 18 19 22 26 28 27 26 25 24 22 19 18 18 17 15 15 14
21 20 16 13 13 14 13 13 14 15 15 16 16 16 16 16 16 11 5 8 11 6 5 4 2 4 6 9 12 13 11 10 9 8 8 7 6 6 5 3 2 1 2 3 1 3 5 6 4 4 3 6 8 8 8 7 8 14 15 10 9 11 13 14 14 14 13 13 12 12 13 17 23 28 29 29 27 26 25 23 21 21 20 19 17 16
19 17 16 12 8 10 12 11 13 13 12 13 13 14 14 14 15 14 9 10 13 11 6 4 2 5 7 9 11 13 13 11 10 9 9 9 8 6 4 3 2 1 1 0 3 6 7 5 3 2 3 4 5 6 7 7 10 14 17 17 14 13 14 13 12 11 10 9 9 10 11 14 19 26 30 31 30 29 28 25 23 22 22 22 20 19
17 14 14 11 4 3 7 8 10 11 10 10 11 12 12 11 11 12 11 10 12 13 11 5 2 6 9 10 12 14 13 12 11 11 10 10 8 5 4 4 3 2 2 4 7 8 4 1 3 3 3 3 4 4 5 6 9 11 14 17 17 16 15 14 12 12 11 10 10 11 12 14 18 24 30 32 32 32 30 27 24 24 24 24 23 22
17 17 16 14 8 6 6 6 8 10 10 9 10 10 9 9 9 8 9 9 9 12 13 8 4 6 9 12 13 14 14 13 13 12 11 10 8 6 5 5 5 5 6 9 9 6 5 7 7 7 7 6 6 5 4 5 8 10 12 14 15 15 15 14 13 12 11 11 11 12 12 14 17 22 28 32 32 31 30 28 26 25 25 26 26 25
14 18 20 21 21 19 15 11 9 10 12 11 11 9 8 7 7 5 6 7 8 10 12 12 9 7 9 12 14 15 16 15 14 14 13 12 10 8 7 8 8 9 9 10 10 10 10 9 8 9 9 8 8 6 5 5 6 9 11 12 14 14 14 13 13 12 12 12 13 13 13 14 16 19 25 29 31 30 30 29 28 26 26 27 27 27
12 15 17 18 20 20 15 11 9 10 11 11 10 8 6 5 5 4 3 3 5 6 8 11 12 10 9 12 14 15 17 17 17 16 15 14 13 12 11 11 11 10 10 11 11 10 10 9 9 9 9 9 9 8 8 9 9 9 10 10 11 12 12 12 12 12 12 12 12 13 13 14 15 16 20 25 28 29 30 30 28 27 26 26 26 26
12 13 15 12 8 9 8 8 10 10 7 7 8 4 2 3 3 3 4 5 6 7 7 7 9 10 10 11 13 16 18 19 18 18 16 15 15 14 13 12 12 12 11 11 11 10 10 10 10 10 11 11 11 11 12 12 13 12 12 12 13 13 14 13 13 12 11 11 11 12 12 13 14 14 16 19 22 24 26 26 26 26 26 26 25 26
10 13 16 12 7 7 6 5 8 9 5 5 6 6 7 7 7 9 9 8 9 10 11 11 11 11 11 12 13 16 19 19 19 18 18 17 16 14 13 13 13 13 12 12 11 10 11 11 11 12 12 12 12 12 13 13 14 14 14 15 15 15 15 15 14 13 11 11 11 11 12 12 13 13 14 15 17 20 21 21 21 23 24 23 23 24
12 11 13 13 11 9 11 11 9 10 10 10 9 9 10 11 12 12 11 11 11 12 12 13 14 13 13 13 14 17 20 21 21 20 19 19 17 15 14 15 15 14 13 12 12 11 12 12 12 12 12 12 11 11 11 11 11 11 12 13 14 14 15 16 16 15 13 13 12 12 12 12 13 13 13 14 15 16 16 16 18 19 20 20 20 21
17 14 13 13 12 12 12 11 9 8 8 9 10 10 11 13 12 12 12 11 12 13 12 14 15 15 15 14 15 17 20 22 22 22 21 20 18 17 17 17 17 15 15 15 14 13 13 13 13 12 12 12 11 10 10 10 9 10 11 13 14 14 15 15 15 14 14 13 13 13 13 14 14 14 13 14 14 14 14 15 16 17 18 18 18 19
14 16 17 16 14 15 14 11 10 9 6 8 12 13 14 14 13 12 12 11 11 12 13 14 16 15 15 16 16 18 20 22 23 24 23 22 20 19 20 20 19 18 17 17 16 15 15 14 14 14 14 13 12 11 10 10 11 11 12 13 14 15 14 14 14 14 13 13 13 14 14 15 15 15 14 14 15 14 14 14 14 16 16 16 16 17
11 14 18 18 15 16 18 15 12 9 6 8 12 15 15 16 15 13 12 12 12 12 13 14 15 15 16 17 18 19 20 22 23 24 24 24 23 23 24 23 22 20 20 19 19 18 18 17 16 15 15 15 15 14 13 13 14 14 14 14 14 15 15 15 14 14 14 14 14 14 15 16 15 15 14 14 14 14 13 13 13 14 14 15 15 16
11 13 15 16 14 16 20 17 9 5 9 12 13 15 16 16 16 14 13 13 13 14 15 16 17 17 16 16 18 19 20 21 22 23 23 24 25 25 25 25 25 24 23 22 21 21 20 20 19 18 17 17 17 17 17 17 18 18 17 16 16 17 18 16 15 15 15 16 16 16 16 16 15 14 13 13 13 13 14 14 14 14 15 15 16 18
10 12 13 14 12 13 18 17 8 5 12 15 13 14 17 16 16 15 14 13 14 15 16 17 17 17 16 15 17 18 18 19 20 21 21 22 23 24 24 25 26 26 25 25 25 25 24 24 22 20 18 18 18 20 22 22 23 22 20 18 17 17 16 14 13 14 16 18 19 19 18 18 17 16 16 15 15 15 15 15 15 15 16 16 17 19
11 11 13 13 12 12 16 17 11 6 8 13 15 15 16 16 15 15 15 14 15 15 16 17 17 17 16 16 16 17 17 17 17 18 19 20 22 24 24 23 23 21 21 23 24 24 24 23 22 20 19 19 18 20 24 26 26 23 20 16 15 14 14 13 14 16 18 20 21 21 20 20 20 20 19 18 17 17 16 16 16 16 16 17 18 19
14 14 13 13 12 14 14 12 7 3 6 14 18 16 17 16 16 16 15 14 15 16 15 15 15 15 16 16 16 16 16 16 16 16 18 19 20 21 21 21 21 20 19 19 18 17 17 16 16 16 17 17 17 18 20 21 20 18 16 16 16 16 16 17 17 18 19 20 21 22 22 22 22 21 20 19 18 17 16 16 17 17 17 18 18 18
15 16 16 15 13 16 16 10 6 6 8 14 18 17 17 17 17 16 12 11 15 16 14 14 14 14 15 15 15 15 15 16 17 17 18 18 19 19 20 20 20 19 17 16 15 14 15 15 14 13 14 15 15 16 18 18 18 18 18 18 19 20 20 20 21 20 19 19 21 21 21 21 22 24 24 22 21 20 19 19 19 19 18 18 18 18
11 13 17 17 15 17 17 12 9 9 10 13 16 17 17 18 19 15 8 10 17 17 14 15 16 15 17 16 15 16 16 16 18 18 19 20 20 21 21 21 20 19 18 16 15 15 15 15 14 15 15 16 17 18 19 20 20 21 21 22 23 23 22 22 22 19 17 17 18 19 18 18 20 22 23 24 24 24 23 21 21 21 20 20 21 22
5 8 11 14 14 15 16 12 8 8 9 11 14 17 18 18 17 13 10 12 18 18 17 18 18 18 19 18 17 17 16 15 16 17 19 20 20 21 21 21 20 20 18 18 17 17 17 17 17 17 17 19 20 21 21 22 23 24 25 26 27 24 22 21 20 18 17 17 17 17 17 18 18 17 18 20 22 23 23 22 22 23 23 24 25 25
3 3 4 7 7 9 11 10 6 5 7 8 11 15 17 15 13 14 16 16 17 19 19 20 20 21 21 20 18 17 16 15 15 15 16 17 17 18 18 18 18 18 18 18 18 18 19 20 21 21 21 22 22 22 23 24 24 24 24 24 23 20 19 20 20 19 19 18 18 18 18 18 17 17 17 18 20 21 22 23 23 23 23 24 24 24
3 3 3 4 4 4 6 6 4 4 6 7 9 13 15 14 12 14 16 16 17 19 21 21 21 22 21 20 19 17 16 15 15 15 16 15 16 16 17 17 18 19 19 20 20 20 21 22 23 24 24 24 24 25 26 27 27 26 25 23 22 21 21 22 23 23 22 21 20 20 20 19 18 17 18 19 20 22 23 24 24 24 24 24 24 24
4 3 3 3 2 2 3 4 4 4 6 7 8 10 13 15 14 12 12 13 15 18 20 20 19 18 18 18 18 17 16 15 14 14 15 14 15 17 18 19 19 20 21 22 23 23 24 25 25 26 27 27 28 28 29 29 29 29 28 27 26 25 25 25 25 25 25 24 24 23 22 21 21 20 20 21 21 23 24 25 26 26 26 26 26 26
2 3 2 2 2 2 2 3 3 4 4 5 7 9 10 11 11 8 7 9 11 14 17 18 17 16 16 15 15 14 14 12 11 11 12 14 15 17 19 21 22 23 24 25 26 27 28 28 28 29 29 30 30 30 31 31 31 30 29 29 29 29 28 28 28 28 28 27 27 26 25 24 24 24 24 24 24 24 25 25 26 27 28 28 29 29
3 3 2 1 2 3 3 4 5 4 4 5 6 7 6 6 6 5 5 6 6 8 10 12 12 13 13 13 13 13 13 13 13 13 15 16 18 19 21 23 25 26 27 28 29 30 31 31 32 32 32 32 33 33 34 34 34 34 33 33 33 33 33 32 32 31 31 31 30 29 28 28 28 27 27 26 26 27 27 28 28 29 29 30 31 30
3 2 2 2 3 3 4 5 5 5 4 4 4 3 3 3 3 3 3 4 5 6 8 10 11 13 14 15 16 16 17 18 19 20 21 22 23 25 26 28 29 30 31 32 33 33 34 34 35 36 36 36 37 37 38 38 39 39 38 38 38 38 38 37 36 36 35 35 34 33 33 32 31 30 30 29 29 29 30 30 31 32 32 32 32 32
2 1 1 3 3 3 3 4 4 3 3 2 1 1 1 1 3 4 6 7 8 10 11 13 14 16 17 19 20 20 21 23 24 25 26 27 29 30 31 32 33 34 35 36 36 37 37 37 37 38 38 38 39 39 40 41 41 42 42 42 42 41 41 41 40 40 39 39 38 38 37 36 35 34 33 32 32 32 33 33 34 34 34 34 34 35
2 2 1 2 2 2 3 3 3 3 2 1 2 3 5 5 7 8 10 11 12 13 14 16 17 19 20 21 23 24 25 26 27 28 29 30 32 33 34 35 35 36 37 38 38 39 39 39 39 40 40 40 40 40 41 41 42 42 43 43 43 43 42 42 42 41 41 42 42 41 41 40 39 38 37 36 35 36 36 36 36 36 36 36 37 37
3 3 3 3 4 4 4 4 4 4 3 4 5 7 8 9 10 11 12 13 14 16 17 18 19 21 22 23 24 25 26 27 28 29 30 31 32 33 35 35 36 36 37 38 38 39 40 41 41 41 42 42 42 42 43 43 43 43 43 44 44 43 43 42 42 41 41 41 41 41 41 42 41 41 40 40 39 39 39 38 38 38 37 37 38 38
3 3 3 4 5 4 5 5 5 5 5 6 7 8 8 9 11 12 13 15 16 18 19 20 20 21 22 23 23 24 26 27 28 29 30 31 32 34 35 35 36 37 37 38 38 39 40 41 42 42 43 43 43 43 44 44 44 44 43 44 44 44 44 43 42 41 40 39 39 39 39 39 39 39 39 39 40 40 40 40 39 38 37 37 37 37
Wind_Direction
206 211 218 216 212 219 223 225 232 218 194 188 185 175 177 198 214 271 275 339 356 323 233 212 211 207 203 200 190 188 209 217 212 205 199 194 182 170 171 185 196 194 167 156 158 176 195 191 179 178 178 180 183 181 180 178 171 175 187 198 209 195 186 180 148 131 142 141 135 128 118 106 91 71 60 46 37 36 34 40 40 36 24 305 260 250
214 221 226 226 227 228 226 227 222 207 202 200 180 161 157 170 143 299 275 13 20 355 236 188 178 180 185 186 189 200 214 207 202 200 194 186 174 170 179 188 195 193 172 167 167 183 200 197 180 178 180 183 184 185 185 182 181 185 186 197 209 202 202 180 132 135 155 148 147 141 128 116 96 74 63 50 40 35 33 37 38 40 37 13 305 269
220 224 222 223 223 212 208 208 201 195 195 191 177 168 160 126 102 105 7 23 35 23 146 176 172 172 177 179 187 201 206 191 190 189 181 172 170 177 184 188 195 194 172 174 177 177 190 195 186 179 181 186 188 190 190 186 190 192 185 192 207 205 205 175 133 150 166 157 158 148 132 119 97 80 67 54 43 35 31 30 29 31 27 23 16 315
220 219 201 201 199 191 194 198 196 193 186 183 183 178 163 123 106 120 67 41 45 56 115 148 158 166 173 176 184 195 195 180 178 178 173 171 177 184 187 191 199 191 170 176 179 173 180 188 184 176 179 187 191 193 191 191 197 194 185 188 205 202 190 169 155 169 176 171 165 153 142 132 112 94 74 57 47 37 32 28 24 24 19 16 18 13
217 198 174 182 182 184 195 199 201 199 188 187 191 180 156 136 124 124 125 107 91 101 120 127 133 153 166 171 179 193 198 190 183 181 180 182 187 188 187 194 198 187 176 175 177 176 175 179 180 177 176 179 186 190 191 195 197 191 186 188 198 195 185 175 178 181 183 185 178 168 155 137 121 104 79 61 51 41 35 30 25 21 17 12 10 10
210 188 175 176 186 198 197 197 201 201 197 201 202 180 151 143 162 163 149 138 133 134 142 149 141 129 157 167 173 192 206 206 198 193 191 192 196 195 190 193 197 194 188 178 176 180 175 174 180 182 177 172 177 181 186 193 191 186 189 196 197 195 192 186 186 188 192 195 192 182 162 139 122 105 83 65 53 43 36 32 29 25 21 17 14 12
201 189 182 173 199 203 197 200 200 199 203 212 202 171 152 154 176 195 195 167 161 157 155 175 182 134 148 164 168 186 207 212 206 201 199 198 202 202 196 195 200 203 200 190 185 188 183 178 183 186 179 171 173 173 175 180 182 186 195 204 202 197 196 193 190 191 197 204 203 189 169 142 118 96 80 67 52 43 36 33 31 27 24 22 20 19
191 187 187 168 144 201 200 203 202 202 207 207 183 160 157 177 188 205 206 189 173 159 149 170 177 155 153 164 165 178 199 212 210 206 203 203 207 207 202 201 205 209 211 208 202 201 197 188 187 189 182 174 172 170 170 175 182 192 201 204 201 198 197 197 194 194 202 211 210 198 179 157 129 104 86 73 54 40 34 32 31 28 26 23 20 20
191 189 188 183 191 192 197 202 204 205 207 197 181 173 176 189 199 196 186 179 170 172 174 166 168 168 172 173 169 176 191 202 206 208 208 207 208 209 207 207 210 215 220 221 218 214 212 204 196 194 190 180 174 173 175 184 192 199 202 198 196 195 196 200 200 200 208 217 220 216 202 193 192 173 132 101 64 40 32 30 27 26 27 23 19 20
200 195 195 205 217 192 191 195 195 194 195 191 189 193 188 190 192 180 175 175 172 188 205 176 177 193 200 186 182 179 186 194 202 209 213 212 213 212 211 211 213 218 225 230 229 225 224 221 210 204 199 184 176 179 183 190 199 204 202 196 194 195 197 202 205 204 211 223 228 223 212 209 211 200 177 144 65 27 24 26 22 22 25 24 22 22
211 206 210 218 219 193 189 185 181 182 187 190 196 194 182 180 180 176 180 179 173 198 199 181 187 202 210 196 192 191 192 197 203 209 216 219 220 220 218 217 216 219 225 231 235 234 234 235 227 219 213 190 178 185 194 200 205 209 206 200 198 199 200 203 205 206 212 224 229 224 217 217 217 214 211 210 209 3 21 27 23 19 22 25 26 27
222 220 222 223 220 183 183 179 175 181 184 187 194 185 170 168 172 179 197 192 193 206 189 193 198 202 214 200 194 198 201 201 202 204 211 219 225 228 227 224 221 221 224 228 235 239 241 246 250 246 239 213 194 195 202 206 209 214 213 208 205 204 205 207 206 208 215 223 228 227 223 224 230 238 241 237 228 219 24 28 25 20 23 27 28 30
231 227 223 221 221 197 187 184 183 188 189 188 193 183 169 155 167 193 212 207 231 236 198 201 200 206 227 205 191 194 198 198 198 203 210 216 221 228 231 231 228 225 225 228 233 240 244 248 251 248 243 232 216 212 214 211 210 215 216 214 214 210 207 210 209 211 217 221 225 228 227 231 239 246 248 242 235 230 320 26 21 15 19 26 29 35
228 223 220 218 219 210 202 198 193 193 193 193 196 191 182 155 142 194 184 183 252 237 209 200 195 208 223 204 193 195 201 203 205 210 217 221 225 230 232 234 233 229 228 229 232 238 242 240 239 240 238 232 221 221 229 223 213 215 217 220 225 218 205 205 210 212 216 219 223 228 230 234 237 241 242 240 243 245 238 251 11 2 9 23 31 40
212 212 213 214 218 214 208 207 202 197 197 200 202 203 203 194 188 203 199 204 210 191 189 191 194 197 193 200 203 204 213 218 217 223 228 233 237 238 237 236 237 237 233 231 231 234 238 234 231 234 232 222 213 217 227 225 218 222 225 224 230 225 204 200 209 213 216 218 222 229 233 235 236 240 241 238 243 244 226 202 347 345 355 23 39 47
216 221 211 208 213 212 207 207 205 200 200 205 207 210 215 213 213 207 193 194 168 137 173 189 200 202 196 211 222 223 234 235 236 240 239 242 244 243 244 243 247 250 244 237 233 233 236 232 229 238 232 212 211 219 221 218 218 226 226 218 222 222 204 200 211 215 218 223 227 230 233 236 239 245 248 242 241 238 216 192 251 317 329 16 45 56
213 220 212 206 206 207 208 207 205 206 206 204 204 211 219 219 215 204 165 146 152 167 193 192 203 211 208 222 227 232 246 251 257 254 244 246 247 248 254 258 266 269 256 243 234 232 235 230 233 258 260 204 198 210 211 210 214 221 221 216 221 220 195 194 205 208 216 225 230 232 232 234 239 246 249 245 242 238 218 196 223 278 284 326 33 62
208 211 208 206 202 197 203 208 209 214 217 211 208 215 219 216 210 203 165 102 144 198 202 194 207 206 202 217 222 226 239 247 246 237 237 244 249 260 281 305 324 330 298 258 239 239 240 233 239 264 273 207 188 195 203 204 202 207 214 220 228 229 211 206 211 212 217 223 227 230 229 230 237 243 245 244 241 239 226 207 218 248 251 258 271 271
208 211 208 206 204 200 205 211 210 213 218 220 222 220 216 209 196 191 175 148 192 201 184 203 220 215 212 218 221 222 227 224 200 196 232 245 282 330 343 346 347 353 346 313 274 267 263 237 235 269 293 247 200 202 207 202 195 202 216 225 234 235 220 215 218 218 217 219 223 227 228 230 237 240 241 241 240 239 231 218 220 233 237 238 245 251
209 214 208 201 206 205 206 207 206 207 210 213 218 215 209 206 195 190 188 189 195 193 172 188 213 230 225 224 228 227 215 196 181 184 207 231 304 332 344 346 339 344 351 343 313 299 292 281 285 306 317 271 214 213 197 178 186 220 221 204 197 192 187 190 197 199 199 209 219 225 228 230 235 236 236 239 241 238 232 226 225 228 232 236 241 245
217 218 207 192 198 197 196 201 203 203 202 200 200 201 201 198 184 183 194 200 188 175 177 175 190 224 223 220 222 224 209 193 194 197 211 238 275 307 321 327 325 326 342 342 325 315 305 289 289 311 324 242 197 193 173 176 206 196 127 138 140 137 148 161 170 180 193 209 220 226 228 228 229 230 233 237 239 236 233 233 231 230 232 235 240 245
216 215 203 186 193 197 198 203 202 202 203 202 202 203 205 204 188 172 188 201 190 179 182 174 186 208 208 209 213 217 212 205 212 222 231 242 246 255 277 294 298 281 312 335 333 348 41 40 14 17 26 180 178 175 185 221 219 163 132 126 138 148 165 174 181 192 203 215 222 226 228 227 224 223 227 233 235 233 232 235 236 235 236 235 237 245
211 211 198 177 185 198 202 204 198 196 200 204 208 211 211 213 204 192 193 196 189 188 181 172 187 192 188 199 207 213 218 220 225 232 234 232 226 228 240 249 250 265 336 349 9 105 94 80 83 102 146 191 196 196 206 220 192 159 151 156 162 171 185 191 195 202 209 216 222 226 228 228 223 220 223 229 232 231 231 234 236 237 239 238 238 245
199 200 186 162 167 186 183 182 183 180 182 187 196 199 199 203 205 206 214 202 189 187 177 166 196 193 186 196 203 209 218 222 223 222 221 220 215 208 195 190 209 188 50 283 158 127 103 82 76 116 164 191 205 213 211 197 179 166 162 166 173 181 187 191 196 201 207 213 219 225 228 229 224 219 221 226 230 231 232 235 238 239 242 244 243 246
203 203 183 156 130 170 172 174 178 171 170 179 182 185 189 194 199 205 209 200 192 197 198 195 193 186 190 197 200 205 211 211 211 213 214 213 201 178 163 164 165 148 159 181 162 140 115 359 287 247 219 205 207 211 207 196 189 182 173 172 177 184 188 193 198 203 211 219 224 228 230 231 226 219 219 225 229 232 235 237 238 239 242 245 245 246
215 220 206 182 169 187 191 186 182 177 175 174 171 172 179 182 186 196 198 195 201 208 204 202 193 185 195 200 197 201 204 203 206 209 210 206 189 168 167 168 161 163 178 185 182 195 246 258 247 234 229 230 228 219 211 206 199 193 186 182 182 185 190 195 200 208 219 228 234 238 239 237 230 221 220 224 229 234 237 238 239 241 243 245 246 247
196 198 203 202 201 200 196 187 186 191 185 170 161 162 165 173 193 214 218 213 220 219 211 212 215 204 198 200 201 201 202 202 205 207 208 204 192 183 183 181 181 185 193 204 218 237 246 238 223 220 225 231 232 228 216 210 202 191 186 186 187 190 196 202 209 216 224 232 238 243 244 241 234 225 222 225 231 236 239 242 244 244 242 243 245 249
189 180 189 205 210 208 207 208 207 203 192 172 155 151 153 159 183 206 227 239 237 233 231 228 226 221 211 206 206 206 205 204 204 204 206 203 196 195 197 198 202 206 208 213 218 221 221 214 206 207 214 225 234 236 227 222 219 204 190 193 199 203 207 211 215 221 228 237 243 246 244 241 238 232 226 227 231 236 239 242 245 243 240 242 246 250
199 188 186 190 185 174 177 181 173 171 179 170 156 166 211 201 205 244 274 290 274 260 267 264 246 241 238 226 218 213 210 206 203 203 203 201 200 204 209 212 211 205 201 203 206 208 209 210 212 215 220 227 235 239 236 235 237 232 226 228 231 230 225 219 216 218 223 235 245 249 245 242 243 242 236 231 231 233 235 236 237 237 238 242 246 250
182 175 178 183 172 165 184 192 173 180 229 247 219 242 266 258 263 276 281 289 285 270 267 269 265 259 252 244 234 223 214 208 205 203 201 201 205 211 214 211 205 201 202 205 207 211 214 219 223 225 228 234 239 242 244 246 246 246 244 242 241 240 236 224 214 213 218 227 237 244 245 246 248 249 247 239 233 231 228 227 229 234 237 241 245 249
202 181 181 199 209 214 232 241 226 222 249 262 254 259 264 260 264 269 269 271 271 267 262 261 260 257 251 246 239 227 219 213 207 204 204 204 209 215 214 208 205 208 211 214 214 214 217 222 224 224 227 233 237 241 246 250 251 249 246 240 233 231 231 226 219 218 220 220 223 230 239 244 248 252 252 245 238 233 229 227 230 234 240 243 245 248
215 203 194 198 197 195 208 221 224 225 232 234 234 240 246 248 251 253 253 251 251 255 257 255 255 256 252 246 239 230 223 217 212 207 208 211 213 216 214 210 212 217 220 221 219 215 214 217 219 220 223 228 234 241 244 244 244 241 238 235 230 225 224 222 221 220 219 218 221 229 237 242 246 252 253 245 239 236 234 231 231 235 240 243 245 248
210 208 198 192 183 179 186 198 204 205 210 214 215 217 223 231 235 239 243 244 244 248 251 251 253 255 254 247 240 233 226 220 215 211 211 214 215 215 213 214 217 219 221 222 219 214 212 215 217 219 222 228 236 240 239 240 242 241 235 231 227 223 218 212 211 214 218 223 230 235 239 243 247 251 251 247 244 245 244 239 236 237 240 242 245 249
194 199 197 194 187 178 179 185 188 189 207 223 215 210 214 220 224 229 234 238 244 247 249 251 252 252 250 244 238 233 227 220 216 213 213 214 214 212 211 215 219 219 219 220 220 218 217 218 221 224 228 232 234 233 234 240 243 243 239 233 228 225 219 212 210 214 221 227 232 236 239 243 247 250 250 249 250 253 254 252 249 248 249 250 252 254
184 183 189 192 188 178 173 170 166 193 221 225 219 211 211 216 220 226 231 235 240 245 247 248 248 247 246 243 238 232 226 221 218 216 215 215 216 216 214 215 221 224 222 221 222 224 224 224 225 228 232 238 241 237 234 234 237 240 240 237 235 231 225 219 217 219 223 226 229 233 237 240 244 247 247 248 248 250 252 253 252 252 254 255 255 256
194 189 192 188 177 171 171 169 173 225 221 220 223 217 214 216 220 225 231 236 240 244 245 245 245 245 244 242 238 234 229 227 225 224 223 221 224 227 225 223 225 226 227 228 227 225 226 227 228 230 236 245 251 251 246 236 231 231 233 236 241 239 233 233 237 237 235 234 231 229 231 236 240 242 242 242 242 243 245 247 249 253 256 258 260 262
210 203 199 191 182 179 179 184 200 224 216 218 222 219 218 221 223 225 229 235 238 239 241 242 242 243 243 241 239 235 232 232 232 231 231 229 230 233 236 239 240 239 239 240 236 228 225 226 226 229 239 246 251 256 253 240 228 226 232 240 249 250 246 250 254 252 250 248 242 235 233 235 239 242 244 245 244 244 246 248 251 255 258 262 265 267
223 218 212 205 203 199 189 186 198 213 222 224 222 221 223 224 224 225 226 230 233 231 232 236 237 239 239 237 235 233 232 232 232 231 231 232 232 235 238 244 250 251 250 250 250 247 248 249 243 240 247 252 252 255 253 245 239 244 254 258 257 252 250 252 252 250 251 254 252 248 246 245 243 242 241 241 242 243 245 247 249 252 255 259 262 265
231 226 222 219 217 210 199 193 202 212 222 226 222 222 223 221 218 217 218 225 229 228 227 227 227 228 227 224 225 226 226 228 229 230 231 231 233 235 237 240 244 248 250 251 254 256 258 262 262 257 255 254 252 251 252 255 260 263 262 261 255 250 253 257 255 250 250 253 255 256 257 258 255 249 242 238 237 236 236 239 242 245 249 253 259 265
230 228 224 221 221 216 208 206 217 223 225 223 217 215 217 215 211 206 203 218 221 221 221 217 213 215 215 213 213 215 217 222 226 229 229 229 229 230 232 234 236 239 241 244 246 249 252 256 259 259 256 252 250 249 251 258 263 262 259 255 249 248 255 259 255 250 250 253 257 261 265 268 267 259 248 244 243 244 246 247 246 246 248 254 261 265
201 213 216 216 217 216 210 207 218 230 229 224 216 211 209 207 203 203 211 217 214 212 212 208 205 207 209 208 208 210 213 219 223 226 228 228 228 229 229 231 234 236 238 241 245 250 254 257 256 254 253 253 253 253 256 259 258 255 253 250 248 250 255 254 249 248 251 253 257 262 265 267 268 262 252 248 249 252 255 255 254 254 256 261 264 265
135 163 191 200 205 208 204 200 205 226 229 226 219 212 206 201 203 214 222 219 210 207 208 207 206 207 208 208 208 210 214 217 218 220 224 226 229 232 234 238 243 247 251 253 256 258 261 261 260 255 253 252 254 256 260 262 259 256 253 251 250 250 250 248 250 254 255 253 254 258 260 261 261 260 257 257 258 257 256 255 254 255 258 260 261 263
91 97 124 155 172 185 189 187 194 225 230 226 219 213 207 205 214 224 225 220 213 208 207 206 207 208 210 212 213 214 217 220 220 221 225 229 234 239 244 249 253 258 261 262 264 266 267 267 267 265 262 260 259 259 261 263 264 264 261 255 250 248 248 250 254 257 257 257 256 257 259 259 259 258 259 261 262 260 257 255 253 253 255 257 260 262
78 97 116 126 144 164 170 172 188 219 227 221 214 212 211 216 224 231 231 228 222 215 211 208 208 211 215 217 219 220 223 225 229 232 238 246 252 255 259 261 262 264 265 266 267 266 266 266 267 267 267 266 265 264 263 263 262 260 258 256 255 256 257 258 259 260 260 259 258 258 259 259 258 257 257 258 259 259 258 256 254 254 255 257 258 261
98 131 138 133 148 161 168 171 180 200 206 199 198 201 205 211 215 216 217 221 221 219 218 218 218 222 225 228 231 234 236 239 243 246 252 259 263 265 267 267 267 267 266 266 266 265 265 264 263 263 264 263 263 262 261 260 258 255 254 257 259 261 262 263 264 264 263 262 261 260 259 258 257 256 255 254 255 256 258 258 258 258 258 259 259 260
144 149 145 143 152 152 157 161 160 164 164 160 170 182 187 190 190 188 193 206 217 225 230 233 237 240 245 248 251 257 264 268 270 270 269 268 267 267 267 268 269 269 268 267 266 265 265 264 263 262 261 261 260 260 259 260 260 258 258 260 262 264 264 264 263 263 263 264 264 262 261 260 259 258 257 255 254 254 255 256 257 259 260 261 261 261
146 143 128 144 159 153 147 152 151 146 144 141 142 157 172 183 197 213 228 241 251 257 261 266 270 273 275 275 276 278 280 281 280 280 278 276 274 272 271 271 271 271 271 270 269 268 267 266 265 264 263 262 261 261 260 261 261 262 262 262 262 262 263 262 262 261 260 260 260 260 260 260 259 258 258 257 256 255 256 256 257 258 259 261 263 263
171 156 117 135 151 151 150 161 162 153 149 144 127 147 217 248 265 273 275 273 273 273 273 274 276 278 279 280 281 282 282 282 281 280 279 278 277 276 275 275 274 274 274 274 274 273 272 270 269 268 266 265 264 263 262 262 262 262 262 262 261 261 260 259 259 259 258 257 256 255 255 255 255 255 255 254 253 253 254 256 258 259 260 261 262 264
238 254 220 172 170 170 174 178 174 159 159 193 233 241 247 251 254 260 264 265 267 269 270 272 273 275 277 278 280 280 280 279 279 278 278 277 276 276 275 275 274 274 275 275 275 275 274 274 273 272 270 269 268 266 265 264 263 263 263 262 262 261 260 259 258 257 257 256 255 254 253 253 252 252 251 250 250 250 252 255 257 259 260 261 262 263
256 267 247 220 211 200 187 184 183 184 204 231 242 248 254 258 261 264 266 266 268 268 268 269 271 273 274 275 276 276 277 276 276 275 275 275 274 274 274 275 275 275 275 275 275 275 275 275 275 274 273 273 272 271 269 268 267 266 265 264 263 262 262 261 260 259 258 256 256 255 254 253 252 251 251 251 251 252 253 254 255 255 257 259 262 263
244 233 209 197 195 190 183 183 192 206 227 243 252 259 264 267 268 269 270 270 270 270 270 270 271 272 274 275 275 275 276 276 275 275 275 275 275 275 275 275 275 275 275 275 275 275 275 275 275 275 274 274 274 273 272 271 270 269 268 267 266 264 263 262 261 261 260 259 258 257 256 255 254 252 251 251 250 251 252 253 252 252 253 257 260 262
Height
3085 3086 3086 3087 3089 3090 3091 3092 3093 3094 3094 3095 3096 3097 3097 3097 3097 3097 3097 3097 3096 3095 3095 3095 3097 3098 3099 3101 3102 3103 3104 3105 3105 3106 3108 3109 3111 3112 3114 3115 3115 3116 3118 3118 3118 3118 3118 3118 3119 3118 3119 3120 3122 3124 3127 3129 3131 3133 3134 3135 3134 3133 3134 3133 3133 3137 3142 3144 3146 3147 3148 3149 3149 3149 3149 3148 3147 3147 3147 3147 3147 3146 3146 3145 3145 3144
3084 3084 3085 3087 3088 3089 3090 3090 3091 3093 3094 3094 3095 3096 3096 3096 3096 3096 3096 3096 3095 3094 3093 3094 3095 3097 3098 3099 3101 3102 3102 3103 3104 3105 3107 3108 3110 3111 3113 3114 3114 3115 3117 3117 3117 3117 3117 3118 3118 3118 3119 3119 3121 3123 3125 3129 3131 3132 3134 3134 3132 3133 3137 3136 3134 3138 3143 3144 3146 3147 3148 3149 3149 3149 3149 3148 3148 3147 3147 3147 3147 3147 3146 3145 3145 3144
3083 3083 3084 3086 3087 3088 3088 3089 3090 3091 3092 3093 3094 3095 3095 3095 3095 3095 3095 3095 3095 3094 3093 3093 3095 3096 3097 3099 3100 3101 3101 3102 3103 3104 3106 3107 3109 3110 3112 3112 3113 3114 3115 3116 3116 3116 3116 3117 3118 3118 3119 3119 3121 3122 3124 3128 3130 3132 3134 3134 3134 3136 3139 3139 3138 3140 3143 3144 3146 3148 3148 3149 3149 3149 3149 3149 3148 3147 3147 3147 3146 3146 3146 3145 3145 3144
3082 3083 3084 3086 3086 3087 3088 3089 3090 3091 3091 3092 3093 3093 3094 3094 3094 3095 3095 3095 3094 3094 3094 3093 3094 3096 3097 3098 3099 3100 3101 3101 3102 3104 3105 3107 3108 3110 3111 3111 3112 3113 3114 3115 3115 3115 3115 3116 3117 3117 3118 3119 3120 3122 3124 3127 3130 3132 3134 3135 3135 3137 3139 3140 3140 3142 3144 3145 3147 3147 3148 3148 3149 3149 3149 3149 3148 3147 3147 3146 3146 3146 3146 3145 3145 3145
3082 3083 3084 3085 3086 3087 3087 3088 3089 3090 3091 3091 3092 3092 3093 3093 3093 3094 3094 3094 3094 3094 3094 3094 3095 3096 3096 3097 3098 3099 3100 3101 3102 3104 3105 3106 3107 3109 3109 3110 3111 3112 3113 3113 3114 3114 3114 3115 3115 3116 3117 3118 3119 3121 3124 3126 3129 3132 3134 3135 3136 3137 3139 3140 3141 3143 3145 3146 3147 3147 3148 3148 3149 3149 3149 3148 3148 3147 3147 3146 3146 3145 3145 3144 3144 3144
3081 3082 3083 3084 3085 3086 3086 3087 3088 3089 3090 3090 3091 3091 3092 3092 3093 3093 3094 3094 3094 3094 3094 3094 3095 3096 3096 3096 3097 3099 3100 3101 3102 3103 3105 3106 3107 3108 3108 3109 3110 3111 3112 3112 3113 3114 3114 3114 3114 3115 3116 3117 3118 3120 3122 3125 3128 3131 3133 3134 3135 3136 3138 3139 3141 3143 3145 3146 3147 3148 3148 3148 3148 3148 3148 3148 3148 3147 3147 3146 3145 3145 3144 3144 3144 3143
3080 3082 3083 3083 3084 3085 3085 3086 3087 3088 3089 3090 3090 3090 3091 3091 3092 3093 3093 3094 3094 3094 3094 3094 3094 3095 3096 3096 3097 3098 3099 3100 3101 3102 3104 3105 3106 3107 3108 3108 3109 3110 3111 3111 3112 3113 3113 3113 3113 3113 3115 3116 3117 3119 3121 3123 3127 3129 3131 3132 3134 3135 3136 3138 3140 3143 3145 3146 3147 3147 3148 3148 3148 3148 3148 3147 3147 3147 3146 3145 3145 3144 3144 3144 3143 3143
3079 3081 3082 3082 3083 3083 3084 3085 3086 3087 3088 3089 3089 3090 3090 3091 3091 3092 3092 3093 3093 3094 3094 3094 3094 3095 3096 3096 3097 3097 3098 3099 3100 3101 3103 3104 3105 3106 3107 3108 3108 3109 3110 3111 3111 3112 3112 3111 3111 3112 3114 3115 3116 3118 3120 3123 3125 3127 3129 3130 3132 3133 3136 3138 3140 3142 3144 3146 3147 3147 3147 3147 3147 3147 3147 3147 3147 3146 3146 3145 3144 3144 3144 3143 3143 3143
3079 3080 3081 3081 3082 3082 3083 3084 3085 3086 3087 3088 3088 3089 3089 3090 3090 3091 3092 3092 3093 3093 3094 3094 3094 3095 3096 3096 3096 3097 3098 3099 3100 3101 3101 3103 3104 3105 3106 3107 3108 3109 3109 3110 3110 3110 3111 3110 3109 3108 3109 3112 3115 3117 3120 3122 3124 3125 3127 3129 3130 3132 3135 3137 3139 3142 3143 3145 3146 3147 3147 3147 3147 3147 3147 3147 3146 3146 3146 3145 3144 3144 3144 3143 3143 3142
3078 3079 3080 3080 3081 3081 3082 3083 3084 3085 3086 3087 3088 3088 3089 3089 3090 3090 3091 3091 3092 3093 3093 3094 3094 3094 3095 3096 3096 3097 3098 3099 3099 3100 3101 3102 3103 3104 3105 3106 3107 3108 3108 3109 3108 3109 3109 3105 3102 3102 3104 3109 3114 3118 3120 3122 3123 3124 3125 3127 3129 3131 3133 3136 3138 3140 3142 3144 3146 3146 3146 3146 3146 3146 3146 3146 3146 3146 3146 3145 3144 3144 3143 3143 3143 3143
3077 3078 3079 3079 3080 3080 3081 3081 3082 3084 3085 3086 3087 3087 3088 3089 3089 3090 3090 3091 3092 3092 3092 3093 3094 3094 3094 3095 3096 3097 3097 3098 3099 3099 3100 3101 3102 3102 3103 3104 3105 3106 3107 3107 3107 3107 3104 3100 3102 3107 3111 3115 3117 3117 3119 3121 3123 3125 3126 3126 3127 3129 3131 3133 3135 3138 3141 3143 3144 3145 3145 3145 3145 3145 3145 3146 3146 3146 3145 3145 3144 3144 3143 3143 3143 3143
3076 3077 3077 3078 3079 3079 3080 3081 3082 3083 3084 3085 3085 3086 3088 3088 3089 3090 3090 3091 3091 3091 3091 3092 3093 3094 3093 3093 3095 3096 3097 3098 3098 3099 3099 3100 3100 3101 3101 3102 3103 3104 3104 3105 3105 3104 3102 3103 3108 3113 3116 3119 3118 3115 3115 3118 3123 3125 3125 3125 3125 3126 3129 3132 3134 3137 3139 3141 3142 3144 3144 3144 3144 3145 3145 3145 3145 3145 3145 3144 3144 3144 3143 3142 3143 3143
3074 3075 3076 3077 3077 3078 3079 3080 3081 3082 3083 3084 3085 3085 3087 3088 3090 3090 3090 3091 3091 3090 3091 3092 3092 3093 3092 3093 3094 3095 3096 3097 3097 3098 3098 3099 3099 3099 3100 3100 3101 3102 3102 3102 3102 3102 3103 3106 3109 3111 3113 3115 3116 3116 3116 3119 3121 3122 3123 3124 3123 3123 3126 3130 3133 3135 3137 3139 3141 3142 3143 3143 3143 3144 3144 3144 3144 3144 3144 3144 3144 3144 3143 3143 3143 3143
3073 3074 3075 3075 3076 3077 3078 3079 3079 3080 3081 3082 3083 3084 3085 3086 3090 3092 3091 3092 3091 3089 3090 3092 3092 3092 3092 3092 3093 3094 3095 3096 3096 3097 3097 3097 3098 3098 3098 3098 3099 3099 3100 3099 3100 3100 3102 3105 3107 3107 3109 3111 3113 3116 3118 3119 3119 3120 3121 3122 3123 3122 3122 3127 3131 3133 3135 3137 3139 3140 3141 3142 3142 3142 3143 3143 3143 3144 3144 3144 3144 3144 3144 3143 3143 3143
3071 3072 3072 3074 3074 3075 3076 3077 3078 3079 3080 3081 3082 3083 3083 3084 3087 3088 3088 3089 3088 3088 3090 3091 3091 3091 3090 3091 3092 3093 3094 3094 3095 3095 3095 3096 3096 3096 3096 3096 3096 3097 3097 3097 3097 3098 3100 3103 3103 3103 3104 3107 3110 3112 3114 3115 3117 3118 3119 3120 3123 3123 3121 3124 3129 3132 3133 3135 3137 3139 3140 3141 3141 3141 3141 3142 3142 3143 3143 3143 3144 3144 3144 3143 3143 3143
3070 3070 3070 3072 3073 3073 3075 3076 3077 3078 3079 3080 3081 3082 3082 3083 3083 3084 3085 3086 3086 3087 3089 3090 3090 3089 3089 3090 3091 3091 3092 3092 3093 3094 3094 3094 3094 3094 3094 3094 3095 3094 3094 3095 3095 3096 3099 3100 3100 3100 3101 3104 3107 3110 3111 3113 3115 3116 3116 3118 3120 3122 3120 3123 3128 3131 3132 3134 3135 3137 3138 3139 3140 3140 3141 3141 3141 3142 3142 3143 3143 3143 3144 3143 3143 3144
3068 3068 3069 3070 3071 3072 3073 3074 3075 3076 3077 3078 3079 3080 3081 3082 3082 3083 3084 3086 3087 3087 3087 3088 3088 3088 3089 3089 3090 3090 3090 3091 3091 3092 3092 3092 3092 3093 3093 3093 3093 3093 3093 3093 3093 3095 3096 3097 3098 3100 3101 3102 3105 3107 3108 3110 3112 3113 3115 3116 3116 3118 3119 3121 3125 3128 3130 3132 3134 3135 3137 3138 3139 3139 3140 3140 3140 3140 3141 3141 3142 3143 3143 3143 3143 3144
3066 3067 3067 3068 3069 3070 3072 3072 3074 3074 3075 3076 3077 3078 3079 3080 3081 3082 3083 3086 3087 3086 3086 3087 3087 3088 3088 3088 3088 3089 3089 3090 3091 3091 3091 3091 3091 3092 3092 3092 3092 3092 3092 3092 3093 3094 3094 3096 3099 3099 3100 3102 3104 3106 3107 3109 3110 3112 3114 3115 3115 3116 3118 3120 3123 3125 3127 3130 3132 3133 3134 3136 3137 3138 3138 3139 3139 3139 3139 3140 3141 3142 3142 3143 3143 3143
3065 3066 3066 3067 3068 3069 3070 3071 3072 3072 3073 3074 3075 3076 3077 3078 3079 3080 3082 3084 3085 3086 3086 3086 3086 3087 3086 3087 3087 3088 3088 3089 3090 3090 3090 3091 3091 3091 3091 3091 3091 3091 3092 3092 3093 3093 3094 3096 3098 3097 3098 3102 3105 3107 3107 3108 3110 3111 3113 3115 3116 3116 3117 3119 3122 3124 3126 3128 3129 3131 3132 3133 3134 3135 3136 3137 3137 3137 3138 3139 3140 3141 3141 3142 3142 3142
3064 3064 3065 3066 3066 3068 3068 3069 3070 3070 3071 3073 3074 3075 3075 3076 3076 3077 3079 3080 3081 3084 3086 3085 3085 3085 3084 3085 3086 3087 3088 3089 3089 3090 3090 3091 3091 3091 3091 3091 3091 3092 3092 3092 3093 3094 3094 3096 3096 3096 3098 3101 3104 3106 3108 3108 3110 3111 3112 3113 3114 3115 3116 3118 3121 3123 3124 3125 3126 3128 3129 3130 3132 3133 3134 3135 3136 3136 3137 3138 3139 3139 3140 3141 3141 3142
3062 3063 3064 3065 3066 3066 3067 3067 3068 3068 3069 3070 3071 3072 3073 3074 3075 3076 3078 3078 3078 3081 3083 3083 3084 3082 3082 3084 3085 3086 3087 3088 3089 3090 3090 3091 3091 3092 3092 3092 3092 3092 3093 3093 3094 3094 3094 3095 3095 3095 3097 3100 3103 3106 3107 3108 3110 3111 3112 3112 3113 3114 3116 3117 3119 3120 3121 3122 3124 3126 3126 3127 3129 3131 3132 3133 3134 3135 3135 3136 3137 3138 3139 3140 3140 3141
3060 3061 3062 3063 3064 3065 3065 3066 3067 3067 3068 3069 3070 3071 3072 3073 3074 3074 3076 3077 3077 3078 3079 3080 3080 3080 3081 3082 3083 3084 3086 3087 3088 3089 3090 3091 3091 3092 3092 3092 3093 3093 3094 3094 3095 3095 3094 3094 3095 3096 3098 3101 3103 3105 3107 3108 3109 3111 3112 3112 3112 3113 3115 3116 3117 3119 3120 3121 3123 3123 3124 3125 3126 3128 3130 3131 3132 3133 3133 3134 3135 3136 3137 3138 3139 3140
3058 3059 3061 3062 3063 3063 3064 3065 3066 3066 3067 3068 3068 3069 3070 3071 3072 3073 3073 3075 3076 3077 3077 3078 3078 3079 3080 3081 3082 3083 3085 3086 3087 3088 3089 3090 3090 3091 3092 3092 3093 3094 3094 3095 3095 3095 3095 3096 3096 3098 3100 3102 3103 3105 3106 3107 3109 3111 3111 3112 3112 3112 3113 3115 3117 3118 3119 3120 3121 3122 3122 3122 3124 3125 3127 3128 3130 3131 3131 3132 3133 3135 3136 3137 3137 3138
3055 3057 3059 3060 3061 3062 3063 3064 3065 3065 3066 3067 3067 3068 3069 3070 3071 3072 3072 3073 3074 3075 3076 3077 3078 3078 3079 3080 3081 3082 3084 3085 3086 3086 3087 3088 3089 3090 3091 3092 3093 3093 3094 3095 3095 3095 3096 3096 3097 3099 3100 3102 3103 3104 3106 3107 3109 3110 3111 3112 3112 3112 3114 3115 3116 3117 3118 3119 3120 3120 3121 3121 3122 3123 3125 3126 3128 3129 3130 3130 3132 3133 3134 3135 3136 3136
3053 3055 3057 3059 3062 3064 3064 3064 3064 3064 3065 3065 3066 3067 3068 3069 3070 3071 3072 3072 3072 3073 3074 3075 3076 3077 3078 3079 3080 3081 3083 3084 3085 3085 3086 3087 3088 3089 3091 3091 3092 3093 3094 3094 3095 3096 3096 3097 3098 3099 3100 3101 3102 3104 3105 3107 3109 3111 3111 3112 3113 3113 3114 3115 3116 3117 3118 3118 3119 3119 3119 3119 3120 3121 3123 3124 3126 3127 3128 3129 3130 3131 3132 3134 3134 3135
3052 3054 3056 3057 3060 3062 3061 3061 3062 3063 3064 3064 3065 3066 3067 3068 3069 3070 3071 3071 3071 3072 3073 3073 3074 3075 3077 3078 3079 3080 3081 3082 3084 3085 3085 3086 3087 3088 3090 3091 3092 3093 3094 3094 3095 3095 3096 3097 3098 3099 3100 3100 3101 3103 3104 3106 3108 3109 3111 3112 3112 3113 3114 3114 3115 3116 3117 3117 3117 3117 3117 3118 3118 3119 3121 3122 3124 3126 3127 3128 3128 3130 3131 3132 3132 3133
3052 3053 3056 3056 3057 3057 3058 3059 3061 3063 3063 3064 3064 3065 3066 3067 3068 3069 3070 3070 3070 3071 3072 3072 3073 3074 3075 3076 3078 3079 3080 3081 3082 3083 3084 3085 3086 3087 3089 3090 3091 3092 3093 3094 3094 3095 3095 3096 3097 3097 3098 3099 3100 3101 3102 3104 3106 3107 3109 3110 3111 3112 3113 3114 3114 3115 3115 3115 3115 3116 3116 3116 3117 3118 3120 3121 3123 3124 3125 3126 3127 3128 3129 3130 3130 3131
3052 3054 3056 3057 3057 3057 3058 3059 3061 3063 3063 3064 3064 3065 3066 3067 3067 3068 3069 3070 3070 3071 3071 3072 3073 3074 3074 3076 3077 3078 3079 3080 3081 3082 3083 3084 3085 3086 3087 3089 3090 3091 3092 3093 3093 3094 3094 3095 3095 3096 3097 3098 3099 3100 3101 3102 3104 3105 3106 3108 3109 3110 3111 3112 3112 3113 3113 3114 3114 3115 3115 3115 3116 3117 3118 3120 3121 3122 3123 3123 3124 3125 3126 3127 3128 3129
3052 3054 3055 3057 3057 3058 3058 3059 3061 3063 3063 3063 3064 3064 3065 3066 3066 3067 3068 3069 3070 3071 3071 3071 3072 3073 3074 3075 3076 3077 3078 3078 3079 3080 3081 3083 3084 3085 3086 3087 3088 3089 3090 3091 3092 3092 3093 3093 3094 3095 3096 3097 3098 3099 3100 3101 3102 3103 3105 3106 3107 3108 3109 3110 3110 3111 3111 3112 3113 3113 3114 3115 3115 3116 3117 3118 3119 3120 3120 3121 3122 3123 3124 3125 3126 3127
3051 3053 3055 3056 3057 3058 3058 3059 3061 3062 3062 3063 3063 3064 3065 3066 3066 3067 3067 3068 3068 3070 3070 3071 3072 3072 3073 3074 3075 3076 3077 3077 3078 3079 3080 3081 3083 3084 3085 3086 3087 3088 3089 3090 3090 3091 3092 3092 3093 3094 3094 3095 3096 3097 3098 3099 3100 3101 3102 3103 3105 3106 3107 3107 3108 3108 3109 3110 3111 3112 3113 3113 3114 3115 3115 3116 3117 3117 3118 3119 3120 3121 3122 3122 3123 3124
3050 3053 3054 3055 3056 3057 3058 3059 3060 3061 3062 3062 3063 3063 3064 3065 3066 3066 3067 3067 3067 3068 3069 3070 3070 3071 3072 3072 3073 3074 3075 3076 3077 3078 3079 3080 3081 3082 3083 3084 3085 3086 3087 3088 3089 3090 3090 3091 3092 3092 3093 3094 3094 3095 3096 3097 3098 3099 3100 3101 3102 3103 3104 3105 3105 3106 3107 3108 3109 3110 3111 3111 3112 3113 3113 3114 3114 3115 3116 3117 3118 3118 3119 3120 3120 3121
3049 3051 3053 3054 3055 3056 3057 3058 3059 3060 3061 3061 3062 3062 3063 3064 3064 3064 3065 3065 3066 3067 3068 3069 3069 3069 3070 3071 3071 3072 3073 3074 3075 3076 3078 3079 3080 3081 3082 3083 3084 3084 3085 3086 3087 3088 3089 3089 3090 3091 3091 3092 3093 3094 3094 3095 3096 3097 3098 3099 3100 3100 3101 3102 3103 3104 3105 3106 3107 3108 3108 3109 3110 3110 3111 3111 3111 3112 3113 3114 3115 3116 3117 3117 3117 3118
3047 3048 3050 3051 3053 3054 3056 3056 3057 3059 3060 3059 3059 3061 3062 3062 3063 3063 3063 3064 3065 3066 3066 3067 3067 3068 3069 3069 3069 3070 3071 3072 3074 3075 3076 3077 3078 3079 3080 3081 3081 3082 3083 3084 3085 3086 3087 3088 3088 3089 3090 3091 3092 3092 3093 3094 3095 3095 3096 3097 3098 3098 3099 3100 3101 3102 3103 3104 3105 3106 3106 3107 3108 3108 3108 3108 3108 3109 3110 3111 3112 3113 3114 3114 3115 3115
3046 3047 3048 3049 3051 3053 3054 3055 3057 3058 3057 3056 3057 3059 3060 3060 3061 3062 3062 3063 3063 3064 3065 3066 3066 3067 3067 3068 3068 3069 3069 3071 3072 3073 3074 3075 3076 3076 3076 3077 3078 3079 3080 3081 3082 3084 3084 3085 3086 3087 3088 3089 3089 3090 3092 3092 3093 3094 3095 3096 3096 3097 3097 3098 3099 3099 3100 3101 3102 3103 3104 3105 3105 3106 3106 3106 3106 3107 3107 3108 3109 3110 3111 3112 3112 3113
3045 3046 3047 3048 3049 3051 3053 3055 3057 3056 3053 3053 3056 3057 3057 3059 3060 3060 3061 3061 3062 3063 3064 3064 3064 3065 3066 3066 3067 3067 3068 3069 3070 3070 3071 3072 3073 3072 3073 3074 3075 3076 3076 3077 3079 3080 3081 3082 3083 3084 3085 3086 3087 3088 3089 3090 3091 3092 3093 3094 3095 3095 3095 3096 3097 3098 3098 3099 3100 3101 3102 3102 3103 3103 3104 3105 3105 3105 3106 3106 3107 3108 3109 3109 3110 3111
3044 3045 3046 3047 3048 3050 3052 3053 3054 3053 3052 3053 3054 3055 3056 3057 3058 3058 3059 3060 3061 3061 3062 3062 3063 3063 3064 3065 3065 3066 3067 3068 3068 3069 3070 3071 3071 3071 3071 3071 3071 3072 3073 3074 3075 3076 3077 3078 3079 3080 3082 3083 3084 3085 3086 3087 3088 3088 3089 3091 3092 3092 3093 3094 3095 3096 3097 3097 3098 3098 3099 3100 3100 3101 3102 3102 3103 3104 3104 3105 3105 3106 3106 3107 3108 3109
3043 3044 3045 3046 3047 3048 3049 3050 3050 3050 3051 3052 3052 3053 3054 3055 3056 3057 3057 3058 3059 3060 3060 3061 3061 3062 3063 3063 3064 3065 3066 3066 3067 3067 3068 3069 3070 3070 3070 3069 3069 3070 3072 3073 3073 3073 3073 3074 3075 3077 3078 3079 3081 3082 3083 3084 3084 3085 3087 3089 3090 3090 3091 3092 3093 3094 3095 3095 3096 3096 3096 3097 3097 3098 3099 3099 3100 3101 3101 3102 3102 3103 3104 3104 3105 3106
3041 3042 3043 3044 3045 3046 3047 3048 3049 3050 3049 3049 3050 3051 3053 3054 3055 3056 3056 3057 3058 3058 3059 3060 3060 3061 3061 3062 3062 3063 3064 3065 3065 3066 3066 3067 3068 3068 3068 3068 3068 3068 3069 3070 3071 3071 3071 3072 3073 3074 3076 3077 3078 3080 3081 3082 3083 3084 3085 3087 3087 3088 3089 3090 3090 3091 3092 3093 3094 3094 3094 3094 3095 3095 3095 3096 3097 3097 3098 3099 3099 3100 3101 3101 3102 3103
3039 3040 3042 3043 3043 3044 3045 3046 3046 3046 3046 3046 3048 3050 3051 3053 3053 3055 3056 3056 3056 3057 3058 3058 3059 3060 3060 3060 3061 3062 3062 3063 3063 3064 3064 3065 3066 3066 3066 3066 3066 3066 3067 3068 3069 3070 3070 3071 3072 3072 3073 3074 3076 3077 3078 3079 3081 3081 3082 3083 3084 3085 3086 3087 3087 3088 3089 3090 3090 3091 3091 3092 3093 3093 3093 3093 3093 3094 3094 3095 3096 3097 3097 3098 3099 3099
3038 3039 3040 3041 3041 3042 3043 3044 3044 3044 3044 3045 3047 3048 3050 3051 3052 3054 3054 3053 3053 3055 3056 3057 3058 3058 3058 3059 3059 3060 3061 3061 3061 3062 3062 3063 3063 3064 3064 3064 3064 3064 3065 3066 3067 3068 3068 3069 3070 3070 3071 3072 3073 3074 3075 3077 3078 3078 3079 3080 3081 3081 3082 3083 3084 3085 3085 3086 3087 3088 3088 3089 3090 3090 3090 3091 3091 3092 3092 3093 3093 3094 3094 3095 3095 3095
3037 3037 3038 3039 3040 3040 3042 3043 3043 3043 3044 3045 3046 3047 3048 3050 3052 3052 3051 3051 3052 3054 3054 3055 3056 3057 3057 3058 3058 3059 3059 3059 3060 3060 3060 3061 3061 3061 3062 3062 3062 3063 3064 3064 3065 3066 3067 3067 3068 3068 3069 3070 3070 3071 3072 3074 3074 3075 3075 3076 3076 3077 3079 3080 3081 3081 3082 3083 3084 3084 3085 3086 3086 3086 3087 3088 3089 3089 3090 3090 3090 3091 3091 3091 3091 3092
3037 3037 3038 3038 3039 3040 3041 3042 3043 3043 3044 3045 3046 3047 3048 3049 3050 3050 3050 3050 3051 3052 3052 3053 3054 3055 3055 3056 3057 3057 3058 3058 3058 3059 3059 3059 3060 3060 3060 3061 3061 3062 3062 3063 3063 3064 3065 3065 3066 3066 3067 3067 3068 3069 3070 3070 3071 3072 3072 3072 3073 3074 3075 3076 3077 3077 3078 3079 3080 3081 3081 3082 3082 3083 3083 3084 3085 3085 3086 3086 3087 3087 3087 3088 3088 3088
3037 3038 3038 3039 3039 3040 3041 3042 3042 3043 3043 3044 3045 3046 3047 3048 3048 3048 3049 3050 3050 3051 3051 3052 3052 3053 3054 3054 3055 3055 3056 3056 3057 3057 3057 3057 3058 3058 3058 3059 3059 3059 3060 3060 3061 3062 3062 3062 3063 3063 3064 3064 3065 3066 3067 3067 3067 3068 3069 3069 3070 3071 3071 3072 3073 3073 3074 3075 3076 3077 3077 3078 3079 3079 3080 3081 3081 3082 3082 3083 3083 3084 3084 3084 3084 3085
3038 3039 3039 3039 3040 3040 3041 3041 3042 3042 3043 3044 3045 3045 3046 3047 3047 3048 3049 3049 3050 3050 3050 3051 3051 3052 3052 3052 3053 3053 3053 3053 3054 3054 3055 3055 3055 3055 3055 3056 3056 3057 3057 3058 3058 3059 3059 3059 3060 3060 3060 3060 3061 3062 3062 3063 3064 3064 3065 3065 3065 3066 3067 3067 3068 3069 3070 3071 3071 3072 3073 3074 3075 3076 3077 3077 3078 3078 3079 3079 3080 3080 3081 3081 3081 3081
3038 3039 3039 3039 3040 3040 3041 3041 3042 3042 3042 3043 3044 3044 3045 3046 3046 3047 3048 3048 3049 3049 3049 3050 3050 3050 3050 3051 3051 3051 3051 3051 3051 3051 3052 3052 3052 3052 3053 3053 3053 3053 3054 3054 3054 3055 3055 3056 3056 3056 3057 3057 3057 3057 3057 3058 3059 3059 3060 3060 3061 3061 3062 3063 3063 3064 3065 3066 3067 3068 3069 3069 3070 3071 3072 3073 3074 3075 3075 3076 3076 3077 3077 3077 3078 3078
3038 3039 3039 3039 3040 3040 3041 3041 3041 3042 3042 3043 3043 3044 3045 3045 3046 3046 3047 3047 3047 3047 3048 3048 3048 3048 3049 3049 3049 3049 3049 3049 3049 3049 3050 3050 3050 3050 3050 3050 3050 3050 3050 3050 3051 3051 3051 3051 3051 3052 3052 3053 3053 3053 3053 3053 3053 3054 3055 3055 3056 3056 3057 3058 3058 3059 3060 3061 3062 3063 3063 3064 3065 3066 3067 3069 3069 3070 3071 3072 3072 3072 3073 3073 3074 3074
3038 3038 3039 3039 3040 3040 3041 3041 3041 3042 3042 3043 3043 3044 3044 3045 3045 3046 3046 3046 3046 3046 3046 3046 3046 3046 3046 3046 3046 3047 3047 3046 3047 3047 3047 3047 3047 3047 3047 3046 3046 3046 3045 3045 3046 3046 3046 3046 3046 3047 3047 3047 3048 3048 3048 3048 3048 3049 3049 3050 3050 3051 3051 3052 3053 3054 3055 3056 3056 3057 3058 3059 3060 3061 3062 3063 3064 3065 3066 3067 3067 3068 3068 3069 3069 3070
3038 3038 3039 3039 3039 3040 3040 3041 3041 3042 3042 3043 3043 3043 3044 3044 3044 3045 3045 3045 3045 3045 3045 3045 3045 3045 3045 3045 3044 3044 3044 3044 3044 3043 3043 3043 3043 3042 3042 3042 3041 3041 3040 3040 3040 3040 3040 3040 3040 3040 3041 3041 3041 3041 3042 3042 3042 3042 3042 3043 3044 3045 3045 3046 3046 3048 3049 3050 3051 3052 3053 3054 3055 3056 3056 3058 3059 3060 3060 3061 3062 3063 3063 3064 3064 3065
3037 3038 3038 3039 3039 3039 3040 3040 3041 3041 3042 3042 3042 3043 3043 3043 3044 3044 3044 3044 3043 3043 3043 3043 3043 3043 3043 3042 3042 3041 3041 3041 3040 3040 3039 3039 3038 3038 3037 3037 3036 3036 3035 3035 3034 3034 3034 3033 3033 3033 3034 3034 3034 3034 3035 3035 3035 3035 3035 3036 3036 3037 3038 3039 3040 3041 3042 3044 3045 3046 3047 3048 3049 3050 3051 3052 3053 3054 3055 3056 3056 3057 3058 3059 3059 3060
3037 3037 3038 3038 3038 3039 3039 3040 3040 3041 3041 3041 3042 3042 3042 3042 3042 3042 3042 3042 3042 3041 3041 3041 3040 3040 3039 3039 3039 3038 3037 3037 3036 3036 3035 3034 3034 3033 3032 3032 3031 3031 3030 3030 3029 3028 3028 3027 3027 3027 3027 3027 3027 3027 3027 3028 3028 3028 3028 3028 3029 3030 3031 3032 3033 3035 3036 3037 3038 3039 3040 3042 3043 3044 3045 3046 3047 3048 3049 3050 3051 3051 3052 3053 3053 3054
3036 3037 3037 3037 3038 3038 3039 3039 3039 3040 3040 3041 3041 3041 3041 3041 3040 3040 3040 3039 3039 3039 3038 3038 3038 3037 3036 3036 3035 3034 3034 3033 3032 3031 3031 3030 3029 3028 3027 3027 3026 3025 3025 3024 3024 3023 3022 3021 3021 3020 3020 3020 3020 3020 3020 3020 3020 3021 3021 3021 3022 3022 3023 3024 3026 3027 3029 3030 3031 3033 3034 3035 3036 3038 3039 3040 3041 3042 3043 3044 3045 3045 3046 3047 3048 3049